• Processing (Info)

  • MPEC 2005-J29 : 2005 JQ5

    The following Minor Planet Electronic Circular may be linked-to from your own Web pages, but must not otherwise be redistributed electronically.

    A form allowing access to any MPEC is at the bottom of this page.


    Read MPEC 2005-J28 Read MPEC 2005-J30


    M.P.E.C. 2005-J29                                Issued 2005 May 8, 01:05 UT
    
         The Minor Planet Electronic Circulars contain information on unusual
             minor planets and routine data on comets.  They are published
       on behalf of Commission 20 of the International Astronomical Union by the
              Minor Planet Center, Smithsonian Astrophysical Observatory,
                              Cambridge, MA 02138, U.S.A.
    
                      Supported in part by the Brinson Foundation
                 Prepared using the Tamkin Foundation Computer Network
    
                                  MPC@CFA.HARVARD.EDU
              URL http://cfa-www.harvard.edu/iau/mpc.html  ISSN 1523-6714
    
                                       2005 JQ5
    
    Observations:
         K05J05Q* C2005 05 06.27858 15 14 09.92 -03 10 44.3          16.7 V EJ029703
         K05J05Q  C2005 05 06.28698 15 14 09.24 -03 10 38.0          16.8 V EJ029703
         K05J05Q  C2005 05 06.29535 15 14 08.59 -03 10 31.0          16.8 V EJ029703
         K05J05Q  C2005 05 06.30374 15 14 07.87 -03 10 24.5          16.8 V EJ029703
         K05J05Q  C2005 05 06.45462 15 13 55.25 -03 08 27.0          16.9 V EJ029703
         K05J05Q  C2005 05 06.45549 15 13 55.21 -03 08 26.3          17.0 V EJ029703
         K05J05Q  C2005 05 06.45722 15 13 55.10 -03 08 24.5          16.8 V EJ029703
         K05J05Q  C2005 05 06.85354 15 13 25.40 -03 03 16.0          17.6 V EJ029A50
         K05J05Q  C2005 05 06.85500 15 13 25.28 -03 03 14.7          18.1 V EJ029A50
         K05J05Q  C2005 05 06.85646 15 13 25.14 -03 03 13.8          18.3 V EJ029A50
         K05J05Q  C2005 05 06.85793 15 13 25.02 -03 03 12.6          17.8 V EJ029A50
         K05J05Q  C2005 05 06.85810 15 13 25.24 -03 03 13.3          18.2 R EJ029108
         K05J05Q  C2005 05 06.85939 15 13 24.91 -03 03 11.5          17.7 V EJ029A50
         K05J05Q  C2005 05 06.86366 15 13 24.74 -03 03 08.8          17.3 R EJ029108
         K05J05Q  C2005 05 06.86759 15 13 24.46 -03 03 04.0          17.7 R EJ029108
         K05J05Q  C2005 05 06.87085 15 13 24.47 -03 03 00.8          17.6 R EJ029J87
         K05J05Q  C2005 05 06.87477 15 13 24.11 -03 02 57.4          17.5 R EJ029J87
         K05J05Q  C2005 05 06.87867 15 13 23.78 -03 02 53.9          18.0 R EJ029J87
         K05J05Q  C2005 05 06.91328 15 13 20.81 -03 02 27.0          17.6 R EJ029A06
         K05J05Q  C2005 05 06.91951 15 13 20.29 -03 02 22.9          17.4 R EJ029A06
         K05J05Q  C2005 05 06.92575 15 13 19.75 -03 02 17.4          17.8 R EJ029A06
         K05J05Q  C2005 05 07.00534 15 13 12.91 -03 01 13.9          17.6 R EJ029176
         K05J05Q  C2005 05 07.00764 15 13 12.71 -03 01 12.0          17.5 R EJ029176
         K05J05Q  C2005 05 07.00995 15 13 12.51 -03 01 10.2          17.4 R EJ029176
         K05J05Q  C2005 05 07.01011 15 13 12.51 -03 01 10.2          17.8 R EJ029A06
         K05J05Q  C2005 05 07.01227 15 13 12.31 -03 01 08.3          17.6 R EJ029176
         K05J05Q  C2005 05 07.01458 15 13 12.11 -03 01 06.5          17.5 R EJ029176
         K05J05Q  C2005 05 07.02127 15 13 11.57 -03 01 02.6          17.8 R EJ029A06
         K05J05Q  C2005 05 07.02844 15 13 10.86 -03 00 57.4          17.5 R EJ029A61
         K05J05Q  C2005 05 07.03157 15 13 10.58 -03 00 54.8          17.6 R EJ029A61
         K05J05Q  C2005 05 07.03647 15 13 10.15 -03 00 50.3          17.6 R EJ029A61
         K05J05Q  C2005 05 07.03965 15 13 09.93 -03 00 48.5          17.8 R EJ029A61
         K05J05Q  C2005 05 07.04328 15 13 09.60 -03 00 46.0          17.8 R EJ029A61
         K05J05Q  C2005 05 07.04729 15 13 09.26 -03 00 41.5          17.2 R EJ029A61
         K05J05Q  C2005 05 07.05473 15 13 09.58 -03 00 15.2          17.5 R EJ029I77
         K05J05Q  C2005 05 07.05897 15 13 09.22 -03 00 11.8          17.4 R EJ029I77
         K05J05Q  C2005 05 07.06036 15 13 08.26 -03 00 29.3          17.8   EJ029493
         K05J05Q  C2005 05 07.06131 15 13 08.18 -03 00 28.5          17.8   EJ029493
         K05J05Q  C2005 05 07.06216 15 13 08.94 -03 00 09.2          17.4 R EJ029I77
         K05J05Q  C2005 05 07.06223 15 13 08.10 -03 00 27.8          17.8   EJ029493
         K05J05Q  C2005 05 07.22159 15 12 56.19 -02 58 19.9          17.7   EJ029717
         K05J05Q  C2005 05 07.23395 15 12 55.08 -02 58 09.6          17.7   EJ029717
         K05J05Q  C2005 05 07.24404 15 12 54.21 -02 58 01.9          17.6   EJ029717
         K05J05Q  C2005 05 07.29880 15 12 49.50 -02 57 19.2          16.8 V EJ029703
         K05J05Q  C2005 05 07.30549 15 12 48.99 -02 57 14.5          16.6 V EJ029703
         K05J05Q  C2005 05 07.31220 15 12 48.31 -02 57 08.0          16.7 V EJ029703
         K05J05Q  C2005 05 07.31889 15 12 47.73 -02 57 02.4          16.5 V EJ029703
         K05J05Q  C2005 05 07.32449 15 12 47.24 -02 56 58.3          15.8 R EJ029G96
         K05J05Q  C2005 05 07.32537 15 12 47.15 -02 56 57.6          15.8 R EJ029G96
         K05J05Q  C2005 05 07.32626 15 12 47.09 -02 56 56.8          15.7 R EJ029G96
         K05J05Q  C2005 05 07.32714 15 12 47.01 -02 56 56.0          15.8 R EJ029G96
         K05J05Q  C2005 05 07.32873 15 12 46.87 -02 56 54.8          16.2 R EJ029G96
         K05J05Q  C2005 05 07.33595 15 12 46.27 -02 56 48.9          16.2 R EJ029G96
         K05J05Q  C2005 05 07.34318 15 12 45.61 -02 56 43.3          15.6 R EJ029G96
         K05J05Q  C2005 05 07.35042 15 12 44.99 -02 56 36.6          15.9 R EJ029G96
         K05J05Q  C2005 05 07.36189 15 12 44.00 -02 56 27.0          17.7 R EJ029854
         K05J05Q  C2005 05 07.36573 15 12 43.67 -02 56 24.1          17.7 R EJ029854
         K05J05Q  C2005 05 07.36860 15 12 43.40 -02 56 22.0          17.6 R EJ029854
         K05J05Q  C2005 05 07.89630 15 12 00.82 -02 49 22.7          17.4 R EJ029108
         K05J05Q  C2005 05 07.90035 15 12 00.40 -02 49 19.7          17.6 R EJ029108
         K05J05Q  C2005 05 07.90579 15 12 00.01 -02 49 14.3          17.2 R EJ029108
         K05J05Q  C2005 05 07.90972 15 11 59.72 -02 49 11.5          17.6 R EJ029108
         K05J05Q  C2005 05 07.95957 15 11 55.32 -02 48 32.4                 EJ029J95
         K05J05Q  C2005 05 07.96462 15 11 54.87 -02 48 28.3                 EJ029J95
         K05J05Q  C2005 05 07.96918 15 11 54.47 -02 48 24.4          17.6 R EJ029J95
    
    Observer details:
    108 Montelupo.  Observers M. Tombelli, A. Boattini, L. Tesi.  Measurers
        M. Tombelli, A. Boattini, L. Tesi, S. Bartolini, G. Forti.  0.30-m f/5.7
        Schmidt-Cassegrain + CCD.
    176 Observatori Astronomic de Consell.  Observers A. Lopez, R. Pacheco.
        0.41-m f/4 reflector + CCD.
    493 Calar Alto.  Observers M. Busch, F. Hormuth, M. Kretlow.  1.52-m f/8
        reflector + CCD.
    703 Catalina Sky Survey.  Observers S. Larson, S. M. Larson.  Measurers
        E. C. Beshore, C. M. Casey, E. J. Christensen, G. J. Garradd, R. E. Hill,
        S. M. Larson, R. H. McNaught.  0.68-m Schmidt + CCD.
    717 Prude Ranch.  Observer J. Gafford.  0.46-m f/4.5 reflector + CCD.
    854 Sabino Canyon Observatory, Tucson.  Observer J. E. McGaha.  0.36-m f/10.0
        Schmidt-Cassegrain + CCD.
    A06 Mataro.  Observers F. Garcia, E. Cortes.  Measurer E. Cortes.  0.25-m
        f/3.6 Schmidt-Cassegrain + CCD.
    A50 Andrushivka Astronomical Observatory.  Observers O. Gerashchenko,
        Y. Ivashchenko.  0.6-m f/1.2 reflector + CCD.
    A61 Tortona.  Observers F. Fratev, E. Mihaylova.  Measurer F. Fratev.  0.25-m
        f/4.7 reflector + CCD.
    G96 Mt. Lemmon Survey.  Observer A. Grauer.  Measurers E. C. Beshore,
        C. M. Casey, E. J. Christensen, G. J. Garradd, A. Grauer, R. E. Hill,
        S. M. Larson, R. H. McNaught.  1.5-m reflector + CCD.
    I77 CEAMIG-REA Observatory, Belo Horizonte.  Observers C. Jacques, E. Pimentel.
        Measurer C. Jacques.  0.30-m f/3.0 Schmidt-Cassegrain + CCD.
    J95 Great Shefford.  Observer P. Birtwhistle.  0.30-m f/6.3 Schmidt-Cassegrain
        + CCD.
    J87 La Canada.  Observer J. Lacruz.  0.30-m f/3.3 Schmidt-Cassegrain + CCD.
    
    Orbital elements:
    2005 JQ5                                                             PHA 0.021
    Epoch 2005 Apr. 20.0 TT = JDT 2453480.5                 MPC
    M 337.52353              (2000.0)            P               Q
    n   0.22657890     Peri.  222.51251     +0.74626028     +0.65835750
    a   2.6647496      Node    96.03897     -0.58107602     +0.71633188
    e   0.6896088      Incl.    5.67231     -0.32472490     +0.23115804
    P   4.35           H   17.9           G   0.15
    From 65 observations 2005 May 6-7.
    
    Ephemeris:
    2005 JQ5                 a,e,i = 2.66, 0.69, 6                   q = 0.8271
    Date    TT    R. A. (2000) Decl.     Delta      r     Elong.  Phase     V
    2005 04 30    15 20.88   -04 27.0    0.511    1.505   163.6    10.9    18.0
    2005 05 10    15 08.92   -02 20.2    0.405    1.405   164.8    10.9    17.4
    2005 05 20    14 49.44   +00 14.4    0.314    1.304   155.4    18.9    16.9
    2005 05 30    14 19.62   +03 21.4    0.238    1.205   139.9    32.8    16.6
    2005 06 09    13 32.28   +07 18.8    0.173    1.110   119.1    53.1    16.3
    2005 06 19    12 06.68   +12 45.2    0.123    1.021    88.7    84.4    16.4
    2005 06 29    09 29.60   +17 37.0    0.104    0.942    41.9   133.9    19.0
    
    Timothy B. Spahr             (C) Copyright 2005 MPC           M.P.E.C. 2005-J29
    

    Read MPEC 2005-J28 Read MPEC 2005-J30


    MPEC number:

    Enter an MPEC number in one of the following forms:

    • 1997-B01 (the full form)
    • J97B01 (the packed version of the full form)
    • B01 (the abbreviated form)